Temp
19 19 19 19 19 19 19 19 19 19 19 19 19 19 19 19 19 19 19 19 19 19 18 18 18 16 16 15 15 14 15 15 14 14 14 13 13 13 12 12 12 12 12
19 19 19 19 19 19 19 19 19 19 19 19 19 19 19 19 19 19 20 19 19 19 19 18 18 17 16 16 15 15 14 14 15 14 14 13 13 13 13 12 12 12 12
20 19 19 19 19 19 19 19 19 19 19 19 19 19 19 19 20 19 19 19 19 19 18 18 18 17 16 16 16 16 15 15 14 14 14 13 13 13 12 12 12 12 12
20 19 19 19 19 19 20 19 19 19 19 19 19 20 19 19 19 19 18 18 18 19 18 18 17 16 16 16 15 15 15 15 15 14 13 14 13 13 13 12 12 11 12
20 19 19 19 19 19 19 19 19 19 20 19 19 19 19 19 19 18 18 18 17 18 18 18 16 16 16 15 15 14 14 14 14 14 14 14 13 13 14 13 11 11 11
20 19 19 19 19 20 20 19 19 19 19 19 19 19 19 19 19 19 19 18 17 17 18 17 16 16 15 15 15 14 13 12 13 13 13 14 14 13 13 13 12 11 11
20 20 19 19 19 20 20 19 19 19 19 19 18 18 18 19 19 18 18 18 17 17 16 16 16 15 15 14 14 14 13 13 12 12 12 13 13 13 13 13 12 12 11
20 20 20 19 19 20 19 19 18 18 18 18 18 16 14 16 18 17 17 16 16 16 16 15 15 15 14 14 13 13 12 12 11 11 11 12 12 12 13 13 13 12 12
20 19 19 19 19 19 19 18 18 17 17 17 16 16 14 13 13 16 16 16 16 15 15 15 15 14 13 13 13 12 12 11 11 10 10 11 11 12 12 13 13 13 12
19 19 19 19 18 18 18 17 16 16 15 15 15 15 15 15 14 13 15 15 15 14 14 14 13 12 12 12 12 11 11 11 10 9 9 10 11 11 12 12 12 12 12
16 17 17 18 17 17 17 17 16 15 15 14 14 14 14 14 14 13 12 14 14 13 12 12 11 11 11 10 11 11 10 10 9 9 9 10 10 10 10 11 11 11 12
17 16 16 17 17 16 16 15 15 14 14 13 13 13 13 13 13 12 11 12 12 11 11 10 10 10 9 9 10 9 9 9 8 9 9 9 8 8 9 10 10 10 11
16 16 16 16 15 15 14 13 13 13 13 12 13 13 13 13 13 13 13 12 12 10 8 8 8 8 8 8 9 8 8 6 7 7 8 7 7 8 9 10 9 10 11
15 15 15 14 13 14 12 12 12 12 12 12 12 12 12 13 12 12 12 12 11 10 8 6 6 6 7 7 7 7 7 5 5 6 6 6 7 7 8 9 9 9 10
15 15 14 14 14 13 13 11 11 11 11 11 11 11 12 13 13 12 12 12 12 11 10 5 5 5 5 5 6 6 5 4 4 5 5 5 6 7 7 8 8 8 9
15 14 13 12 12 11 11 10 10 10 10 10 10 11 11 10 10 11 11 10 10 10 9 6 5 4 4 4 5 5 5 4 3 3 4 5 6 5 6 7 7 7 7
12 11 12 11 10 9 9 9 9 9 9 9 10 9 9 9 9 9 9 9 9 9 8 5 5 4 4 4 4 4 4 3 3 2 3 3 5 5 5 6 6 7 7
11 10 10 9 9 8 8 8 8 8 9 8 8 8 8 8 8 8 8 8 7 7 7 5 4 3 3 3 3 3 2 3 2 2 2 2 3 4 4 4 4 5 5
9 9 8 8 7 7 7 7 7 7 8 8 7 7 7 7 7 7 7 6 6 6 5 5 3 3 3 3 3 2 2 2 2 2 2 2 2 2 3 3 3 3 3
8 8 7 7 6 6 6 6 6 6 7 7 7 7 6 6 6 6 5 5 4 4 4 4 3 3 3 2 2 2 1 2 1 1 2 2 2 2 2 2 2 2 2
7 6 6 6 5 5 5 5 4 5 5 5 5 5 5 4 4 4 4 3 3 3 3 3 3 3 3 2 2 1 1 1 0 0 1 1 1 1 1 1 1 1 1
6 5 5 5 4 4 4 4 3 3 3 3 3 3 3 3 3 2 2 2 3 3 3 3 3 3 2 1 1 0 -0 -0 -0 -1 -0 -0 0 0 0 0 0 -0 0
5 4 4 4 4 3 3 3 3 2 2 2 2 2 2 2 2 2 1 1 2 2 2 2 2 2 1 1 0 -0 -1 -1 -1 -1 -1 -0 -0 -0 -0 -0 -0 -0 -0
3 3 3 3 3 2 2 2 2 2 2 2 1 1 1 1 1 1 1 0 0 0 0 1 1 1 0 0 -0 -1 -1 -1 -2 -2 -2 -1 -1 -1 -0 -0 -1 -1 -1
3 3 3 3 2 2 1 1 2 1 1 1 1 1 1 1 0 -0 -0 -0 -0 -1 -1 -1 -1 -1 -1 -1 -1 -2 -2 -2 -2 -2 -2 -2 -2 -1 -1 -1 -1 -1 -1
3 3 3 2 2 1 1 0 1 1 0 0 0 0 0 0 -0 -1 -0 -1 -1 -1 -1 -2 -2 -2 -2 -2 -2 -2 -2 -2 -3 -3 -3 -2 -3 -3 -2 -1 -1 -1 -1
Height
840 841 841 843 844 845 846 847 848 847 848 849 849 850 850 850 849 849 848 847 847 846 846 846 845 844 844 844 843 842 842 842 841 840 839 838 837 836 836 835 835 835 835
838 840 840 841 843 844 845 847 847 848 847 848 848 848 848 848 848 847 846 845 845 844 844 844 843 844 843 842 842 841 840 839 839 839 839 838 837 836 836 835 835 836 836
838 838 839 841 842 843 844 845 846 847 847 847 847 847 847 846 845 844 844 843 842 842 841 841 841 841 842 841 840 840 839 838 837 836 837 837 836 836 835 836 835 835 836
837 838 839 840 842 842 843 844 845 845 845 845 845 845 844 843 843 842 841 841 840 839 839 838 839 839 839 839 838 837 837 836 835 834 834 834 834 834 834 834 835 835 835
834 835 837 839 840 841 842 842 843 844 843 843 842 842 841 841 839 839 838 838 837 836 836 836 836 837 837 837 836 835 835 834 832 832 831 832 832 832 832 832 833 833 834
832 834 835 836 838 839 839 840 841 841 841 841 840 838 838 837 836 835 834 834 833 833 834 834 835 835 834 834 834 833 833 833 831 831 829 829 830 829 830 831 831 832 832
830 831 833 834 836 836 837 837 838 839 838 837 837 835 834 833 832 830 829 829 830 831 831 832 833 834 834 833 833 832 831 830 829 830 828 828 827 827 826 827 828 828 829
826 828 829 831 832 833 835 835 835 836 836 835 835 833 832 830 829 827 826 825 828 830 831 830 831 832 832 831 831 831 829 828 828 828 827 826 827 825 825 824 824 824 827
823 825 827 828 829 830 831 832 832 832 832 832 832 833 833 832 829 827 827 827 829 829 829 829 828 829 829 830 829 829 827 827 826 826 826 824 825 823 822 822 821 822 823
821 823 825 825 826 827 829 829 828 829 829 828 828 828 828 828 829 830 826 827 827 828 828 828 828 828 828 829 828 827 826 826 825 823 823 822 822 822 821 819 819 819 820
818 820 822 821 824 824 825 825 825 825 825 825 825 825 825 824 825 825 826 824 826 826 826 827 827 828 826 826 825 825 824 823 824 822 821 821 820 818 818 816 816 816 816
814 817 820 820 821 821 823 823 823 822 822 821 821 822 822 823 820 821 823 822 822 824 824 826 828 827 827 826 825 824 824 823 823 821 819 818 819 817 814 812 812 813 813
810 814 814 816 817 817 821 820 821 819 818 818 817 817 818 819 818 818 819 820 820 821 822 822 824 825 826 826 823 824 822 822 822 821 820 820 817 816 812 808 808 810 810
810 814 813 814 815 810 819 817 818 816 815 813 813 814 814 814 814 814 814 815 816 817 819 820 822 822 825 824 823 823 823 820 823 823 821 821 818 816 812 809 808 808 808
810 810 811 811 810 809 812 813 813 813 811 810 811 811 811 810 810 810 809 809 812 813 813 818 820 821 823 823 822 821 822 819 818 822 822 823 819 816 814 810 809 809 808
804 807 807 808 807 808 809 809 808 808 807 810 809 809 809 808 808 808 805 805 807 807 810 814 816 820 821 821 821 821 821 818 818 818 821 820 818 816 815 813 812 811 811
803 805 801 805 807 807 806 805 805 805 803 806 807 807 806 806 806 807 805 805 805 806 807 813 813 817 820 820 821 821 820 818 818 818 819 818 817 816 815 815 814 813 813
802 801 799 803 806 804 802 803 802 802 801 803 803 804 804 804 805 804 805 805 806 806 807 808 812 813 816 818 819 820 820 819 820 821 823 818 817 816 814 815 815 814 814
800 799 799 801 803 801 798 799 798 799 798 800 800 801 801 802 803 802 801 805 807 806 806 806 808 809 813 815 817 817 817 817 819 817 818 820 817 816 814 814 814 814 814
796 797 797 799 799 798 795 795 796 796 797 797 798 798 798 799 802 801 801 804 808 807 806 807 807 810 811 813 815 816 818 817 819 817 817 818 817 816 814 815 815 815 815
795 795 795 795 796 794 793 794 794 793 794 797 796 797 797 797 800 800 801 802 805 806 806 806 807 808 810 810 812 812 814 814 818 816 816 816 815 815 814 814 815 815 815
792 792 792 792 792 792 792 792 792 792 793 794 795 794 797 799 798 800 801 803 803 805 805 806 808 808 807 812 812 812 812 810 816 815 815 815 814 814 814 814 815 815 814
789 789 788 789 790 790 790 791 791 791 792 793 792 793 796 799 800 799 802 801 802 804 803 805 808 806 806 809 808 810 812 809 813 814 815 814 814 814 814 814 814 814 813
786 786 787 789 789 789 789 790 790 790 790 791 792 794 795 798 800 802 800 802 802 803 802 803 807 808 807 807 808 808 809 808 811 813 815 813 814 813 812 812 813 813 813
784 785 785 786 787 788 788 789 789 789 789 791 793 795 795 795 800 801 802 800 800 803 802 804 807 809 807 807 808 808 807 807 809 812 813 812 813 812 811 812 812 813 813
780 782 783 784 785 786 787 787 788 788 789 791 793 793 793 795 799 798 800 799 800 801 801 803 807 808 807 807 806 806 806 807 810 811 812 812 812 812 811 811 811 812 812
Wind_Speed
12 10 10 9 7 9 7 6 5 4 4 5 6 7 7 8 9 9 9 9 10 9 8 8 8 9 10 10 10 9 9 8 7 5 5 4 2 1 0 2 2 5 6
11 12 11 12 10 9 7 6 6 6 6 6 6 7 8 11 12 13 13 12 13 13 12 9 10 9 9 12 13 13 13 13 11 8 6 4 3 2 2 2 3 4 4
13 11 14 12 11 9 8 7 7 7 6 7 9 8 11 14 13 14 16 16 15 13 14 13 11 9 9 10 11 14 14 14 15 13 11 9 7 4 3 3 4 4 4
15 12 13 12 10 9 9 9 9 9 8 8 10 12 12 15 16 15 12 12 12 14 14 10 9 7 8 9 9 11 13 13 12 16 15 13 11 9 6 5 5 6 7
16 15 14 12 10 10 10 10 9 9 10 11 13 15 15 17 18 20 21 21 15 12 9 7 5 5 6 7 8 7 9 9 8 10 12 17 16 13 10 9 9 9 9
16 17 15 13 12 12 11 11 11 12 13 14 16 15 17 19 18 22 21 19 12 10 7 6 4 5 6 5 5 4 6 9 9 8 8 9 13 18 16 13 11 12 13
16 17 17 14 15 14 13 12 13 13 15 15 14 18 19 17 21 17 18 17 12 9 8 4 3 2 4 5 6 6 7 9 9 10 9 8 8 8 14 20 18 16 15
21 18 18 17 14 14 13 13 14 16 16 17 14 7 3 6 8 5 6 5 12 10 6 6 2 1 3 5 7 8 8 9 9 9 9 9 9 9 11 10 16 21 17
19 17 15 15 15 16 17 17 17 16 19 20 16 7 2 3 2 1 4 8 9 11 11 8 6 5 3 2 5 8 8 9 9 10 11 10 11 10 9 10 10 15 22
16 17 16 15 16 17 18 19 16 16 15 17 15 13 17 10 3 2 3 5 6 10 12 11 9 7 4 1 5 5 7 10 12 13 12 10 10 11 10 10 7 9 18
10 10 13 14 13 12 13 14 14 14 14 15 14 14 12 13 14 8 3 5 3 5 12 12 10 7 5 1 1 4 7 9 15 13 11 9 9 10 13 13 12 12 10
14 12 11 11 10 10 12 13 13 13 13 13 14 14 14 10 5 8 3 7 6 7 11 10 8 6 4 1 2 5 7 8 10 14 9 7 8 10 14 16 14 13 13
17 15 14 11 9 9 13 13 14 14 14 15 14 15 17 19 17 15 13 8 7 6 6 10 9 7 4 2 1 4 6 9 4 10 12 11 11 11 16 7 4 6 9
13 11 9 10 11 7 14 12 14 14 13 13 14 14 16 17 18 19 19 12 3 6 5 6 9 7 5 3 2 5 4 5 4 4 6 5 6 11 18 19 14 11 5
13 13 12 13 12 12 13 13 14 14 14 13 14 14 16 17 17 17 17 15 10 3 3 7 5 8 6 3 2 3 3 2 5 2 3 4 3 5 10 12 11 10 9
16 15 13 12 12 12 13 13 13 12 10 13 13 14 13 10 9 10 10 9 9 6 2 4 4 8 6 3 5 4 4 1 2 3 2 2 4 6 5 6 7 8 10
14 13 10 11 12 12 12 12 12 11 11 14 14 13 11 10 9 7 6 7 7 6 4 3 7 8 5 4 5 4 3 1 1 2 1 2 4 4 4 4 4 5 5
11 10 7 11 13 13 12 12 12 12 13 14 13 12 12 11 10 8 6 6 6 5 5 7 8 7 6 2 4 2 1 2 3 4 4 3 3 3 3 4 3 2 1
11 9 8 10 12 11 9 10 10 11 12 14 14 13 12 10 11 8 8 6 8 7 8 8 7 7 5 2 3 4 4 3 3 2 2 3 3 3 3 2 4 3 3
10 9 10 10 10 9 8 8 8 10 11 12 11 11 10 10 10 8 8 9 9 8 6 8 7 8 5 5 3 4 3 2 4 3 3 4 4 3 2 2 2 2 1
11 10 9 9 9 9 9 10 9 9 10 9 9 8 7 8 7 8 8 8 7 7 7 8 7 5 6 6 7 5 3 2 5 2 3 5 4 4 2 1 2 4 4
11 10 10 9 8 8 8 8 8 10 11 10 9 6 5 5 5 5 5 6 7 8 8 6 6 6 6 6 6 4 3 2 2 3 6 1 1 1 1 1 1 4 4
11 10 8 8 8 7 6 5 7 8 10 9 8 9 9 7 7 7 5 6 6 8 8 9 11 9 9 9 7 6 4 3 2 3 5 1 0 0 1 3 2 3 5
11 9 8 8 8 7 6 6 7 7 8 7 9 9 9 7 7 7 8 6 5 3 3 4 6 7 6 6 6 4 4 2 1 1 2 1 2 2 4 1 4 1 2
11 10 10 10 10 8 6 8 8 8 8 9 10 10 9 8 6 6 8 7 6 5 3 3 3 4 4 4 5 5 4 2 2 3 2 1 2 4 1 3 5 3 2
12 12 12 13 11 9 7 8 9 9 11 11 11 10 9 9 8 7 8 6 7 8 6 5 5 5 4 5 5 4 5 6 4 3 4 1 1 4 2 4 4 5 5
Wind_Direction
197 202 196 202 193 199 195 205 216 219 239 254 272 275 280 285 288 294 304 303 295 294 302 312 313 285 280 274 272 277 288 297 305 327 346 352 326 291 174 116 105 95 94
215 216 216 215 212 214 221 231 241 253 270 273 278 285 284 283 283 277 291 300 297 284 290 290 293 291 275 274 280 275 266 272 283 289 290 303 323 304 270 221 139 124 113
219 224 217 220 217 222 221 229 244 253 257 271 285 287 289 290 304 286 286 294 301 292 275 266 292 281 283 289 291 293 288 276 252 258 276 266 268 280 264 243 194 180 159
217 219 216 221 223 222 226 231 237 252 266 277 285 288 289 297 305 306 297 299 300 294 301 287 251 280 283 282 288 301 308 307 290 256 248 253 242 257 253 240 227 202 190
220 218 220 222 222 225 234 234 250 259 268 272 282 288 285 291 293 297 298 298 290 294 290 282 219 261 278 276 289 316 336 344 324 297 278 248 240 241 257 250 224 212 208
221 221 222 221 222 232 236 244 245 263 271 280 284 283 288 288 292 289 289 292 282 268 253 224 237 274 280 289 297 303 333 348 341 326 324 290 268 237 235 238 235 225 214
224 222 222 225 226 236 237 243 258 266 272 276 291 288 289 292 289 285 280 286 263 198 175 194 222 273 300 323 315 309 314 325 354 352 345 298 317 294 261 238 229 224 220
220 223 220 222 231 239 248 256 263 271 275 281 287 295 300 294 279 335 317 184 174 159 181 191 214 283 293 312 320 314 318 322 348 347 347 342 328 307 296 290 249 222 217
210 213 211 221 236 248 256 260 265 266 275 276 272 252 302 243 321 244 146 163 173 179 184 197 209 204 232 280 320 319 325 328 327 338 332 330 322 314 305 292 274 247 221
207 223 236 235 246 253 258 263 265 268 268 272 279 261 250 260 223 306 219 211 210 204 192 193 190 178 182 241 335 340 344 342 336 331 319 317 314 312 300 303 298 273 244
207 224 239 243 248 253 258 262 264 264 264 264 263 270 270 263 260 232 240 263 195 183 188 186 182 184 178 164 353 352 344 350 6 347 335 323 311 307 300 290 281 273 289
219 227 235 237 244 262 269 268 265 260 262 264 262 259 258 249 233 226 211 236 214 173 181 184 188 178 177 195 349 356 356 2 34 26 29 26 359 345 329 294 270 265 270
206 215 218 230 249 261 269 262 263 263 264 264 267 265 263 260 261 253 248 251 216 182 159 178 187 188 205 214 331 350 351 43 54 28 34 31 23 3 360 345 265 274 266
202 212 227 239 252 269 264 270 269 269 267 267 266 256 267 267 263 254 243 231 223 207 170 171 186 178 199 232 300 335 346 63 34 7 14 8 20 33 49 65 71 48 351
219 222 238 252 257 256 261 263 267 271 276 270 270 267 262 261 259 252 240 234 232 227 197 173 170 185 200 222 269 317 296 151 134 58 6 351 15 20 54 72 73 64 67
216 223 230 248 259 257 257 256 251 261 275 274 270 266 260 250 233 225 214 216 220 204 147 173 173 182 194 230 295 309 287 242 148 192 247 268 324 16 37 53 53 61 72
211 225 231 254 256 257 258 260 258 257 256 262 263 259 253 246 239 240 236 231 232 219 163 139 161 180 193 270 304 314 265 215 238 343 268 305 298 336 9 33 34 77 96
231 235 249 257 258 252 259 262 262 252 254 259 255 248 249 247 247 245 252 256 218 206 198 157 169 172 213 318 299 219 141 89 106 71 355 3 321 300 332 15 341 340 52
233 239 246 249 250 249 257 269 273 264 252 255 255 247 244 246 250 229 240 234 238 231 223 191 161 178 187 170 223 190 163 153 196 206 303 308 351 17 27 345 320 357 64
239 238 237 243 247 254 262 269 271 264 256 247 239 234 234 243 233 233 235 234 235 206 184 171 159 165 172 165 200 186 189 219 252 262 295 291 297 317 4 347 334 332 306
235 238 244 243 250 261 268 269 258 250 235 231 227 226 216 208 232 245 226 198 193 187 188 181 168 173 175 179 201 191 205 257 261 283 320 299 283 277 284 243 292 309 293
236 242 239 241 248 261 272 272 253 231 220 217 208 200 217 212 177 181 193 205 210 216 204 206 204 197 190 213 191 201 203 112 273 270 339 315 43 67 107 86 13 347 339
237 231 232 236 243 256 266 242 231 219 212 210 191 177 171 172 184 182 181 206 216 225 225 224 223 215 201 200 193 200 213 159 231 309 320 212 323 45 256 270 276 323 339
232 228 222 229 236 235 234 215 222 214 203 197 194 190 191 205 221 223 201 187 183 175 159 197 216 213 200 192 202 197 184 142 278 227 325 264 290 297 308 191 147 309 106
225 223 231 230 225 229 221 234 231 217 212 208 208 215 219 210 207 219 221 191 185 188 158 182 197 203 197 210 220 217 201 180 180 196 243 306 302 331 318 161 178 175 188
232 223 235 226 227 232 237 217 221 216 202 203 207 206 206 205 197 200 222 206 202 203 189 189 201 198 203 192 213 222 206 189 183 205 210 348 304 356 292 213 210 251 275